owner,sensor,date,latitude,longitude,vertical_datum,sea_water_practical_salinity,qcFlag 
DISL,ioos:station:DISL:MHPA:1,2019-06-01T00:00:00Z,30.6671,-87.9365,1.171,0.09,11111222 
DISL,ioos:station:DISL:MHPA:1,2019-06-01T00:30:00Z,30.6671,-87.9365,1.2,0.1,11111222 
DISL,ioos:station:DISL:MHPA:1,2019-06-01T01:00:00Z,30.6671,-87.9365,1.139,0.08,11111222 
DISL,ioos:station:DISL:MHPA:1,2019-06-01T01:30:00Z,30.6671,-87.9365,1.1,0.1,11111222 
DISL,ioos:station:DISL:MHPA:1,2019-06-01T02:00:00Z,30.6671,-87.9365,1.136,0.08,11111222 
DISL,ioos:station:DISL:MHPA:1,2019-06-01T02:30:00Z,30.6671,-87.9365,1.1,0.1,11111222 
DISL,ioos:station:DISL:MHPA:1,2019-06-01T03:00:00Z,30.6671,-87.9365,1.14,0.08,11111222 
DISL,ioos:station:DISL:MHPA:1,2019-06-01T03:30:00Z,30.6671,-87.9365,1.2,0.1,11111222 
DISL,ioos:station:DISL:MHPA:1,2019-06-01T04:00:00Z,30.6671,-87.9365,1.167,0.08,11111222 
DISL,ioos:station:DISL:MHPA:1,2019-06-01T04:30:00Z,30.6671,-87.9365,1.2,0.1,11111222 
DISL,ioos:station:DISL:MHPA:1,2019-06-01T05:00:00Z,30.6671,-87.9365,1.196,0.09,11111222 
DISL,ioos:station:DISL:MHPA:1,2019-06-01T05:30:00Z,30.6671,-87.9365,1.2,0.1,11111222 
DISL,ioos:station:DISL:MHPA:1,2019-06-01T06:00:00Z,30.6671,-87.9365,1.234,0.09,11111222 
DISL,ioos:station:DISL:MHPA:1,2019-06-01T06:30:00Z,30.6671,-87.9365,1.2,0.1,11111222 
DISL,ioos:station:DISL:MHPA:1,2019-06-01T07:00:00Z,30.6671,-87.9365,1.254,0.09,11111222 
DISL,ioos:station:DISL:MHPA:1,2019-06-01T07:30:00Z,30.6671,-87.9365,1.3,0.1,11111222 
DISL,ioos:station:DISL:MHPA:1,2019-06-01T08:00:00Z,30.6671,-87.9365,1.276,0.09,11111222 
DISL,ioos:station:DISL:MHPA:1,2019-06-01T08:30:00Z,30.6671,-87.9365,1.3,0.1,11111222 
DISL,ioos:station:DISL:MHPA:1,2019-06-01T09:00:00Z,30.6671,-87.9365,1.308,0.09,11111222 
DISL,ioos:station:DISL:MHPA:1,2019-06-01T09:30:00Z,30.6671,-87.9365,1.3,0.1,11111222 
DISL,ioos:station:DISL:MHPA:1,2019-06-01T10:00:00Z,30.6671,-87.9365,1.34,0.09,11111222 
DISL,ioos:station:DISL:MHPA:1,2019-06-01T10:30:00Z,30.6671,-87.9365,1.3,0.1,11111222 
DISL,ioos:station:DISL:MHPA:1,2019-06-01T11:00:00Z,30.6671,-87.9365,1.266,0.09,11111222 
DISL,ioos:station:DISL:MHPA:1,2019-06-01T11:30:00Z,30.6671,-87.9365,1.3,0.1,11111222 
DISL,ioos:station:DISL:MHPA:1,2019-06-01T12:00:00Z,30.6671,-87.9365,1.361,0.09,11111222 
DISL,ioos:station:DISL:MHPA:1,2019-06-01T12:30:00Z,30.6671,-87.9365,1.4,0.1,11111222 
DISL,ioos:station:DISL:MHPA:1,2019-06-01T13:00:00Z,30.6671,-87.9365,1.351,0.09,11111222 
DISL,ioos:station:DISL:MHPA:1,2019-06-01T13:30:00Z,30.6671,-87.9365,1.4,0.1,11111222 
DISL,ioos:station:DISL:MHPA:1,2019-06-01T14:00:00Z,30.6671,-87.9365,1.374,0.09,11111222 
DISL,ioos:station:DISL:MHPA:1,2019-06-01T14:30:00Z,30.6671,-87.9365,1.4,0.1,11111222 
DISL,ioos:station:DISL:MHPA:1,2019-06-01T15:00:00Z,30.6671,-87.9365,1.454,0.09,11111222 
DISL,ioos:station:DISL:MHPA:1,2019-06-01T15:30:00Z,30.6671,-87.9365,1.5,0.1,11111222 
DISL,ioos:station:DISL:MHPA:1,2019-06-01T16:00:00Z,30.6671,-87.9365,1.486,0.09,11111222 
DISL,ioos:station:DISL:MHPA:1,2019-06-01T16:30:00Z,30.6671,-87.9365,1.5,0.1,11111222 
DISL,ioos:station:DISL:MHPA:1,2019-06-01T17:00:00Z,30.6671,-87.9365,1.469,0.09,11111222 
DISL,ioos:station:DISL:MHPA:1,2019-06-01T17:30:00Z,30.6671,-87.9365,1.5,0.1,11111222 
DISL,ioos:station:DISL:MHPA:1,2019-06-01T18:00:00Z,30.6671,-87.9365,1.415,0.09,11111222 
DISL,ioos:station:DISL:MHPA:1,2019-06-01T18:30:00Z,30.6671,-87.9365,1.4,0.1,11111222 
DISL,ioos:station:DISL:MHPA:1,2019-06-01T19:00:00Z,30.6671,-87.9365,1.369,0.09,11111222 
DISL,ioos:station:DISL:MHPA:1,2019-06-01T19:30:00Z,30.6671,-87.9365,1.3,0.1,11111222 
DISL,ioos:station:DISL:MHPA:1,2019-06-01T20:00:00Z,30.6671,-87.9365,1.331,0.09,11111222 
DISL,ioos:station:DISL:MHPA:1,2019-06-01T20:30:00Z,30.6671,-87.9365,1.4,0.1,11111222 
DISL,ioos:station:DISL:MHPA:1,2019-06-01T21:00:00Z,30.6671,-87.9365,1.294,0.09,11111222 
DISL,ioos:station:DISL:MHPA:1,2019-06-01T21:30:00Z,30.6671,-87.9365,1.3,0.1,11111222 
DISL,ioos:station:DISL:MHPA:1,2019-06-01T22:00:00Z,30.6671,-87.9365,1.211,0.09,11111222 
DISL,ioos:station:DISL:MHPA:1,2019-06-01T22:30:00Z,30.6671,-87.9365,1.2,0.1,11111222 
DISL,ioos:station:DISL:MHPA:1,2019-06-01T23:00:00Z,30.6671,-87.9365,1.145,0.09,11111222 
DISL,ioos:station:DISL:MHPA:1,2019-06-01T23:30:00Z,30.6671,-87.9365,1.1,0.1,11111222 
DISL,ioos:station:DISL:MHPA:1,2019-06-02T00:00:00Z,30.6671,-87.9365,1.062,0.09,11111222 
DISL,ioos:station:DISL:MHPA:1,2019-06-02T00:30:00Z,30.6671,-87.9365,1.0,0.1,11111222 
DISL,ioos:station:DISL:MHPA:1,2019-06-02T01:00:00Z,30.6671,-87.9365,0.998,0.09,11111222 
DISL,ioos:station:DISL:MHPA:1,2019-06-02T01:30:00Z,30.6671,-87.9365,1.0,0.1,11111222 
DISL,ioos:station:DISL:MHPA:1,2019-06-02T02:00:00Z,30.6671,-87.9365,0.952,0.09,11111222 
DISL,ioos:station:DISL:MHPA:1,2019-06-02T02:30:00Z,30.6671,-87.9365,1.0,0.1,11111222 
DISL,ioos:station:DISL:MHPA:1,2019-06-02T03:00:00Z,30.6671,-87.9365,0.944,0.09,11111222 
DISL,ioos:station:DISL:MHPA:1,2019-06-02T03:30:00Z,30.6671,-87.9365,0.9,0.1,11111222 
DISL,ioos:station:DISL:MHPA:1,2019-06-02T04:00:00Z,30.6671,-87.9365,0.925,0.09,11111222 
DISL,ioos:station:DISL:MHPA:1,2019-06-02T04:30:00Z,30.6671,-87.9365,1.0,0.1,11111222 
DISL,ioos:station:DISL:MHPA:1,2019-06-02T05:00:00Z,30.6671,-87.9365,0.975,0.09,11111222 
DISL,ioos:station:DISL:MHPA:1,2019-06-02T05:30:00Z,30.6671,-87.9365,1.0,0.1,11111222 
DISL,ioos:station:DISL:MHPA:1,2019-06-02T06:00:00Z,30.6671,-87.9365,1.05,0.09,11111222 
DISL,ioos:station:DISL:MHPA:1,2019-06-02T06:30:00Z,30.6671,-87.9365,1.1,0.1,11111222 
DISL,ioos:station:DISL:MHPA:1,2019-06-02T07:00:00Z,30.6671,-87.9365,1.122,0.09,11111222 
DISL,ioos:station:DISL:MHPA:1,2019-06-02T07:30:00Z,30.6671,-87.9365,1.2,0.1,11111222 
DISL,ioos:station:DISL:MHPA:1,2019-06-02T08:00:00Z,30.6671,-87.9365,1.189,0.09,11111222 
DISL,ioos:station:DISL:MHPA:1,2019-06-02T08:30:00Z,30.6671,-87.9365,1.2,0.1,11111222 
DISL,ioos:station:DISL:MHPA:1,2019-06-02T09:00:00Z,30.6671,-87.9365,1.224,0.09,11111222 
DISL,ioos:station:DISL:MHPA:1,2019-06-02T09:30:00Z,30.6671,-87.9365,1.3,0.1,11111222 
DISL,ioos:station:DISL:MHPA:1,2019-06-02T10:00:00Z,30.6671,-87.9365,1.269,0.09,11111222 
DISL,ioos:station:DISL:MHPA:1,2019-06-02T10:30:00Z,30.6671,-87.9365,1.3,0.1,11111222 
DISL,ioos:station:DISL:MHPA:1,2019-06-02T11:00:00Z,30.6671,-87.9365,1.314,0.09,11111222 
DISL,ioos:station:DISL:MHPA:1,2019-06-02T11:30:00Z,30.6671,-87.9365,1.3,0.1,11111222 
DISL,ioos:station:DISL:MHPA:1,2019-06-02T12:00:00Z,30.6671,-87.9365,1.356,0.09,11111222 
DISL,ioos:station:DISL:MHPA:1,2019-06-02T12:30:00Z,30.6671,-87.9365,1.4,0.1,11111222 
DISL,ioos:station:DISL:MHPA:1,2019-06-02T13:00:00Z,30.6671,-87.9365,1.401,0.09,11111222 
DISL,ioos:station:DISL:MHPA:1,2019-06-02T13:30:00Z,30.6671,-87.9365,1.4,0.1,11111222 
DISL,ioos:station:DISL:MHPA:1,2019-06-02T14:00:00Z,30.6671,-87.9365,1.448,0.09,11111222 
DISL,ioos:station:DISL:MHPA:1,2019-06-02T14:30:00Z,30.6671,-87.9365,1.5,0.1,11111222 
DISL,ioos:station:DISL:MHPA:1,2019-06-02T15:00:00Z,30.6671,-87.9365,1.475,0.09,11111222 
DISL,ioos:station:DISL:MHPA:1,2019-06-02T15:30:00Z,30.6671,-87.9365,1.5,0.1,11111222 
DISL,ioos:station:DISL:MHPA:1,2019-06-02T16:00:00Z,30.6671,-87.9365,1.49,0.09,11111222 
DISL,ioos:station:DISL:MHPA:1,2019-06-02T16:30:00Z,30.6671,-87.9365,1.5,0.1,11111222 
DISL,ioos:station:DISL:MHPA:1,2019-06-02T17:00:00Z,30.6671,-87.9365,1.49,0.09,11111222 
DISL,ioos:station:DISL:MHPA:1,2019-06-02T17:30:00Z,30.6671,-87.9365,1.5,0.1,11111222 
DISL,ioos:station:DISL:MHPA:1,2019-06-02T18:00:00Z,30.6671,-87.9365,1.465,0.09,11111222 
DISL,ioos:station:DISL:MHPA:1,2019-06-02T18:30:00Z,30.6671,-87.9365,1.5,0.1,11111222 
DISL,ioos:station:DISL:MHPA:1,2019-06-02T19:00:00Z,30.6671,-87.9365,1.419,0.09,11111222 
DISL,ioos:station:DISL:MHPA:1,2019-06-02T19:30:00Z,30.6671,-87.9365,1.4,0.1,11111222 
DISL,ioos:station:DISL:MHPA:1,2019-06-02T20:00:00Z,30.6671,-87.9365,1.363,0.09,11111222 
DISL,ioos:station:DISL:MHPA:1,2019-06-02T20:30:00Z,30.6671,-87.9365,1.3,0.1,11111222 
DISL,ioos:station:DISL:MHPA:1,2019-06-02T21:00:00Z,30.6671,-87.9365,1.334,0.09,11111222 
DISL,ioos:station:DISL:MHPA:1,2019-06-02T21:30:00Z,30.6671,-87.9365,1.3,0.1,11111222 
DISL,ioos:station:DISL:MHPA:1,2019-06-02T22:00:00Z,30.6671,-87.9365,1.257,0.09,11111222 
DISL,ioos:station:DISL:MHPA:1,2019-06-02T22:30:00Z,30.6671,-87.9365,1.2,0.1,11111222 
DISL,ioos:station:DISL:MHPA:1,2019-06-02T23:00:00Z,30.6671,-87.9365,1.174,0.09,11111222 
DISL,ioos:station:DISL:MHPA:1,2019-06-02T23:30:00Z,30.6671,-87.9365,1.1,0.1,11111222 
DISL,ioos:station:DISL:MHPA:1,2019-06-03T00:00:00Z,30.6671,-87.9365,1.097,0.09,11111222 
DISL,ioos:station:DISL:MHPA:1,2019-06-03T00:30:00Z,30.6671,-87.9365,1.1,0.1,11111222 
DISL,ioos:station:DISL:MHPA:1,2019-06-03T01:00:00Z,30.6671,-87.9365,1.026,0.09,11111222 
DISL,ioos:station:DISL:MHPA:1,2019-06-03T01:30:00Z,30.6671,-87.9365,1.0,0.1,11111222 
DISL,ioos:station:DISL:MHPA:1,2019-06-03T02:00:00Z,30.6671,-87.9365,0.975,0.09,11111222 
DISL,ioos:station:DISL:MHPA:1,2019-06-03T02:30:00Z,30.6671,-87.9365,1.0,0.1,11111222 
DISL,ioos:station:DISL:MHPA:1,2019-06-03T03:00:00Z,30.6671,-87.9365,0.944,0.09,11111222 
DISL,ioos:station:DISL:MHPA:1,2019-06-03T03:30:00Z,30.6671,-87.9365,0.9,0.1,11111222 
DISL,ioos:station:DISL:MHPA:1,2019-06-03T04:00:00Z,30.6671,-87.9365,0.937,0.09,11111222 
DISL,ioos:station:DISL:MHPA:1,2019-06-03T04:30:00Z,30.6671,-87.9365,0.9,0.1,11111222 
DISL,ioos:station:DISL:MHPA:1,2019-06-03T05:00:00Z,30.6671,-87.9365,0.962,0.09,11111222 
DISL,ioos:station:DISL:MHPA:1,2019-06-03T05:30:00Z,30.6671,-87.9365,1.0,0.1,11111222 
DISL,ioos:station:DISL:MHPA:1,2019-06-03T06:00:00Z,30.6671,-87.9365,1.011,0.09,11111222 
DISL,ioos:station:DISL:MHPA:1,2019-06-03T06:30:00Z,30.6671,-87.9365,1.1,0.1,11111222 
DISL,ioos:station:DISL:MHPA:1,2019-06-03T07:00:00Z,30.6671,-87.9365,1.084,0.09,11111222 
DISL,ioos:station:DISL:MHPA:1,2019-06-03T07:30:00Z,30.6671,-87.9365,1.1,0.1,11111222 
DISL,ioos:station:DISL:MHPA:1,2019-06-03T08:00:00Z,30.6671,-87.9365,1.152,0.09,11111222 
DISL,ioos:station:DISL:MHPA:1,2019-06-03T08:30:00Z,30.6671,-87.9365,1.2,0.1,11111222 
DISL,ioos:station:DISL:MHPA:1,2019-06-03T09:00:00Z,30.6671,-87.9365,1.212,0.09,11111222 
DISL,ioos:station:DISL:MHPA:1,2019-06-03T09:30:00Z,30.6671,-87.9365,1.2,0.1,11111222 
DISL,ioos:station:DISL:MHPA:1,2019-06-03T10:00:00Z,30.6671,-87.9365,1.265,0.09,11111222 
DISL,ioos:station:DISL:MHPA:1,2019-06-03T10:30:00Z,30.6671,-87.9365,1.3,0.1,11111222 
DISL,ioos:station:DISL:MHPA:1,2019-06-03T11:00:00Z,30.6671,-87.9365,1.296,0.09,11111222 
DISL,ioos:station:DISL:MHPA:1,2019-06-03T11:30:00Z,30.6671,-87.9365,1.3,0.1,11111222 
DISL,ioos:station:DISL:MHPA:1,2019-06-03T12:00:00Z,30.6671,-87.9365,1.326,0.09,11111222 
DISL,ioos:station:DISL:MHPA:1,2019-06-03T12:30:00Z,30.6671,-87.9365,1.4,0.1,11111222 
DISL,ioos:station:DISL:MHPA:1,2019-06-03T13:00:00Z,30.6671,-87.9365,1.375,0.1,11111222 
DISL,ioos:station:DISL:MHPA:1,2019-06-03T13:30:00Z,30.6671,-87.9365,1.4,0.1,11111222 
DISL,ioos:station:DISL:MHPA:1,2019-06-03T14:00:00Z,30.6671,-87.9365,1.427,0.09,11111222 
DISL,ioos:station:DISL:MHPA:1,2019-06-03T14:30:00Z,30.6671,-87.9365,1.5,0.1,11111222 
DISL,ioos:station:DISL:MHPA:1,2019-06-03T15:00:00Z,30.6671,-87.9365,1.476,0.09,11111222 
DISL,ioos:station:DISL:MHPA:1,2019-06-03T15:30:00Z,30.6671,-87.9365,1.5,0.1,11111222 
DISL,ioos:station:DISL:MHPA:1,2019-06-03T16:00:00Z,30.6671,-87.9365,1.506,0.1,11111222 
DISL,ioos:station:DISL:MHPA:1,2019-06-03T16:30:00Z,30.6671,-87.9365,1.5,0.1,11111222 
DISL,ioos:station:DISL:MHPA:1,2019-06-03T17:00:00Z,30.6671,-87.9365,1.51,0.1,11111222 
DISL,ioos:station:DISL:MHPA:1,2019-06-03T17:30:00Z,30.6671,-87.9365,1.5,0.1,11111222 
DISL,ioos:station:DISL:MHPA:1,2019-06-03T18:00:00Z,30.6671,-87.9365,1.499,0.09,11111222 
DISL,ioos:station:DISL:MHPA:1,2019-06-03T18:30:00Z,30.6671,-87.9365,1.5,0.1,11111222 
DISL,ioos:station:DISL:MHPA:1,2019-06-03T19:00:00Z,30.6671,-87.9365,1.456,0.09,11111222 
DISL,ioos:station:DISL:MHPA:1,2019-06-03T19:30:00Z,30.6671,-87.9365,1.4,0.1,11111222 
DISL,ioos:station:DISL:MHPA:1,2019-06-03T20:00:00Z,30.6671,-87.9365,1.4,0.1,11111222 
DISL,ioos:station:DISL:MHPA:1,2019-06-03T20:30:00Z,30.6671,-87.9365,1.4,0.1,11111222 
DISL,ioos:station:DISL:MHPA:1,2019-06-03T21:00:00Z,30.6671,-87.9365,1.354,0.09,11111222 
DISL,ioos:station:DISL:MHPA:1,2019-06-03T21:30:00Z,30.6671,-87.9365,1.3,0.1,11111222 
DISL,ioos:station:DISL:MHPA:1,2019-06-03T22:00:00Z,30.6671,-87.9365,1.302,0.09,11111222 
DISL,ioos:station:DISL:MHPA:1,2019-06-03T22:30:00Z,30.6671,-87.9365,1.3,0.1,11111222 
DISL,ioos:station:DISL:MHPA:1,2019-06-03T23:00:00Z,30.6671,-87.9365,1.228,0.09,11111222 
DISL,ioos:station:DISL:MHPA:1,2019-06-03T23:30:00Z,30.6671,-87.9365,1.2,0.1,11111222 
DISL,ioos:station:DISL:MHPA:1,2019-06-04T00:00:00Z,30.6671,-87.9365,1.143,0.09,11111222 
DISL,ioos:station:DISL:MHPA:1,2019-06-04T00:30:00Z,30.6671,-87.9365,1.1,0.1,11111222 
DISL,ioos:station:DISL:MHPA:1,2019-06-04T01:00:00Z,30.6671,-87.9365,1.067,0.09,11111222 
DISL,ioos:station:DISL:MHPA:1,2019-06-04T01:30:00Z,30.6671,-87.9365,1.0,0.1,11111222 
DISL,ioos:station:DISL:MHPA:1,2019-06-04T02:00:00Z,30.6671,-87.9365,0.997,0.09,11111222 
DISL,ioos:station:DISL:MHPA:1,2019-06-04T02:30:00Z,30.6671,-87.9365,1.0,0.1,11111222 
DISL,ioos:station:DISL:MHPA:1,2019-06-04T03:00:00Z,30.6671,-87.9365,0.931,0.1,11111222 
DISL,ioos:station:DISL:MHPA:1,2019-06-04T03:30:00Z,30.6671,-87.9365,0.9,0.1,11111222 
DISL,ioos:station:DISL:MHPA:1,2019-06-04T04:00:00Z,30.6671,-87.9365,0.891,0.1,11111222 
DISL,ioos:station:DISL:MHPA:1,2019-06-04T04:30:00Z,30.6671,-87.9365,0.9,0.1,11111222 
DISL,ioos:station:DISL:MHPA:1,2019-06-04T05:00:00Z,30.6671,-87.9365,0.882,0.1,11111222 
DISL,ioos:station:DISL:MHPA:1,2019-06-04T05:30:00Z,30.6671,-87.9365,0.9,0.1,11111222 
DISL,ioos:station:DISL:MHPA:1,2019-06-04T06:00:00Z,30.6671,-87.9365,0.913,0.09,11111222 
DISL,ioos:station:DISL:MHPA:1,2019-06-04T06:30:00Z,30.6671,-87.9365,0.9,0.1,11111222 
DISL,ioos:station:DISL:MHPA:1,2019-06-04T07:00:00Z,30.6671,-87.9365,0.961,0.09,11111222 
DISL,ioos:station:DISL:MHPA:1,2019-06-04T07:30:00Z,30.6671,-87.9365,1.0,0.1,11111222 
DISL,ioos:station:DISL:MHPA:1,2019-06-04T08:00:00Z,30.6671,-87.9365,1.032,0.09,11111222 
DISL,ioos:station:DISL:MHPA:1,2019-06-04T08:30:00Z,30.6671,-87.9365,1.1,0.1,11111222 
DISL,ioos:station:DISL:MHPA:1,2019-06-04T09:00:00Z,30.6671,-87.9365,1.124,0.1,11111222 
DISL,ioos:station:DISL:MHPA:1,2019-06-04T09:30:00Z,30.6671,-87.9365,1.2,0.1,11111222 
DISL,ioos:station:DISL:MHPA:1,2019-06-04T10:00:00Z,30.6671,-87.9365,1.201,0.1,11111222 
DISL,ioos:station:DISL:MHPA:1,2019-06-04T10:30:00Z,30.6671,-87.9365,1.2,0.1,11111222 
DISL,ioos:station:DISL:MHPA:1,2019-06-04T11:00:00Z,30.6671,-87.9365,1.254,0.1,11111222 
DISL,ioos:station:DISL:MHPA:1,2019-06-04T11:30:00Z,30.6671,-87.9365,1.3,0.1,11111222 
DISL,ioos:station:DISL:MHPA:1,2019-06-04T12:00:00Z,30.6671,-87.9365,1.298,0.1,11111222 
DISL,ioos:station:DISL:MHPA:1,2019-06-04T12:30:00Z,30.6671,-87.9365,1.3,0.1,11111222 
DISL,ioos:station:DISL:MHPA:1,2019-06-04T13:00:00Z,30.6671,-87.9365,1.344,0.1,11111222 
DISL,ioos:station:DISL:MHPA:1,2019-06-04T13:30:00Z,30.6671,-87.9365,1.4,0.1,11111222 
DISL,ioos:station:DISL:MHPA:1,2019-06-04T14:00:00Z,30.6671,-87.9365,1.413,0.1,11111222 
DISL,ioos:station:DISL:MHPA:1,2019-06-04T14:30:00Z,30.6671,-87.9365,1.5,0.1,11111222 
DISL,ioos:station:DISL:MHPA:1,2019-06-04T15:00:00Z,30.6671,-87.9365,1.477,0.1,11111222 
DISL,ioos:station:DISL:MHPA:1,2019-06-04T15:30:00Z,30.6671,-87.9365,1.5,0.1,11111222 
DISL,ioos:station:DISL:MHPA:1,2019-06-04T16:00:00Z,30.6671,-87.9365,1.533,0.1,11111222 
DISL,ioos:station:DISL:MHPA:1,2019-06-04T16:30:00Z,30.6671,-87.9365,1.6,0.1,11111222 
DISL,ioos:station:DISL:MHPA:1,2019-06-04T17:00:00Z,30.6671,-87.9365,1.563,0.1,11111222 
DISL,ioos:station:DISL:MHPA:1,2019-06-04T17:30:00Z,30.6671,-87.9365,1.6,0.1,11111222 
DISL,ioos:station:DISL:MHPA:1,2019-06-04T18:00:00Z,30.6671,-87.9365,1.567,0.1,11111222 
DISL,ioos:station:DISL:MHPA:1,2019-06-04T18:30:00Z,30.6671,-87.9365,1.6,0.1,11111222 
DISL,ioos:station:DISL:MHPA:1,2019-06-04T19:00:00Z,30.6671,-87.9365,1.548,0.1,11111222 
DISL,ioos:station:DISL:MHPA:1,2019-06-04T19:30:00Z,30.6671,-87.9365,1.5,0.1,11111222 
DISL,ioos:station:DISL:MHPA:1,2019-06-04T20:00:00Z,30.6671,-87.9365,1.503,0.1,11111222 
DISL,ioos:station:DISL:MHPA:1,2019-06-04T20:30:00Z,30.6671,-87.9365,1.5,0.1,11111222 
DISL,ioos:station:DISL:MHPA:1,2019-06-04T21:00:00Z,30.6671,-87.9365,1.449,0.1,11111222 
DISL,ioos:station:DISL:MHPA:1,2019-06-04T21:30:00Z,30.6671,-87.9365,1.4,0.1,11111222 
DISL,ioos:station:DISL:MHPA:1,2019-06-04T22:00:00Z,30.6671,-87.9365,1.375,0.1,11111222 
DISL,ioos:station:DISL:MHPA:1,2019-06-04T22:30:00Z,30.6671,-87.9365,1.3,0.1,11111222 
DISL,ioos:station:DISL:MHPA:1,2019-06-04T23:00:00Z,30.6671,-87.9365,1.3,0.1,11111222 
DISL,ioos:station:DISL:MHPA:1,2019-06-04T23:30:00Z,30.6671,-87.9365,1.3,0.1,11111222 
DISL,ioos:station:DISL:MHPA:1,2019-06-05T00:00:00Z,30.6671,-87.9365,1.215,0.1,11111222 
DISL,ioos:station:DISL:MHPA:1,2019-06-05T00:30:00Z,30.6671,-87.9365,1.2,0.1,11111222 
DISL,ioos:station:DISL:MHPA:1,2019-06-05T01:00:00Z,30.6671,-87.9365,1.127,0.1,11111222 
DISL,ioos:station:DISL:MHPA:1,2019-06-05T01:30:00Z,30.6671,-87.9365,1.1,0.1,11111222 
DISL,ioos:station:DISL:MHPA:1,2019-06-05T02:00:00Z,30.6671,-87.9365,1.047,0.1,11111222 
DISL,ioos:station:DISL:MHPA:1,2019-06-05T02:30:00Z,30.6671,-87.9365,1.0,0.1,11111222 
DISL,ioos:station:DISL:MHPA:1,2019-06-05T03:00:00Z,30.6671,-87.9365,0.98,0.1,11111222 
DISL,ioos:station:DISL:MHPA:1,2019-06-05T03:30:00Z,30.6671,-87.9365,1.0,0.1,11111222 
DISL,ioos:station:DISL:MHPA:1,2019-06-05T04:00:00Z,30.6671,-87.9365,0.931,0.1,11111222 
DISL,ioos:station:DISL:MHPA:1,2019-06-05T04:30:00Z,30.6671,-87.9365,0.9,0.1,11111222 
DISL,ioos:station:DISL:MHPA:1,2019-06-05T05:00:00Z,30.6671,-87.9365,0.897,0.1,11111222 
DISL,ioos:station:DISL:MHPA:1,2019-06-05T05:30:00Z,30.6671,-87.9365,0.9,0.1,11111222 
DISL,ioos:station:DISL:MHPA:1,2019-06-05T06:00:00Z,30.6671,-87.9365,0.88,0.1,11111222 
DISL,ioos:station:DISL:MHPA:1,2019-06-05T06:30:00Z,30.6671,-87.9365,0.9,0.1,11111222 
DISL,ioos:station:DISL:MHPA:1,2019-06-05T07:00:00Z,30.6671,-87.9365,0.889,0.1,11111222 
DISL,ioos:station:DISL:MHPA:1,2019-06-05T07:30:00Z,30.6671,-87.9365,0.9,0.1,11111222 
DISL,ioos:station:DISL:MHPA:1,2019-06-05T08:00:00Z,30.6671,-87.9365,0.933,0.1,11111222 
DISL,ioos:station:DISL:MHPA:1,2019-06-05T08:30:00Z,30.6671,-87.9365,1.0,0.1,11111222 
DISL,ioos:station:DISL:MHPA:1,2019-06-05T09:00:00Z,30.6671,-87.9365,1.005,0.1,11111222 
DISL,ioos:station:DISL:MHPA:1,2019-06-05T09:30:00Z,30.6671,-87.9365,1.1,0.1,11111222 
DISL,ioos:station:DISL:MHPA:1,2019-06-05T10:00:00Z,30.6671,-87.9365,1.1,0.1,11111222 
DISL,ioos:station:DISL:MHPA:1,2019-06-05T10:30:00Z,30.6671,-87.9365,1.2,0.1,11111222 
DISL,ioos:station:DISL:MHPA:1,2019-06-05T11:00:00Z,30.6671,-87.9365,1.189,0.1,11111222 
DISL,ioos:station:DISL:MHPA:1,2019-06-05T11:30:00Z,30.6671,-87.9365,1.2,0.1,11111222 
DISL,ioos:station:DISL:MHPA:1,2019-06-05T12:00:00Z,30.6671,-87.9365,1.259,0.1,11111222 
DISL,ioos:station:DISL:MHPA:1,2019-06-05T13:00:00Z,30.6671,-87.9365,1.329,0.1,11111222 
DISL,ioos:station:DISL:MHPA:1,2019-06-05T14:00:00Z,30.6671,-87.9365,1.402,0.1,11111222 
DISL,ioos:station:DISL:MHPA:1,2019-06-05T14:30:00Z,30.6671,-87.9365,1.4,0.1,11111222 
DISL,ioos:station:DISL:MHPA:1,2019-06-05T15:00:00Z,30.6671,-87.9365,1.49,0.1,11111222 
DISL,ioos:station:DISL:MHPA:1,2019-06-05T15:30:00Z,30.6671,-87.9365,1.5,0.1,11111222 
DISL,ioos:station:DISL:MHPA:1,2019-06-05T16:00:00Z,30.6671,-87.9365,1.57,0.1,11111222 
DISL,ioos:station:DISL:MHPA:1,2019-06-05T16:30:00Z,30.6671,-87.9365,1.6,0.1,11111222 
DISL,ioos:station:DISL:MHPA:1,2019-06-05T17:00:00Z,30.6671,-87.9365,1.625,0.1,11111222 
DISL,ioos:station:DISL:MHPA:1,2019-06-05T17:30:00Z,30.6671,-87.9365,1.7,0.1,11111222 
DISL,ioos:station:DISL:MHPA:1,2019-06-05T18:00:00Z,30.6671,-87.9365,1.64,0.1,11111222 
DISL,ioos:station:DISL:MHPA:1,2019-06-05T18:30:00Z,30.6671,-87.9365,1.6,0.1,11111222 
DISL,ioos:station:DISL:MHPA:1,2019-06-05T19:00:00Z,30.6671,-87.9365,1.605,0.11,11111222 
DISL,ioos:station:DISL:MHPA:1,2019-06-05T19:30:00Z,30.6671,-87.9365,1.6,0.1,11111222 
DISL,ioos:station:DISL:MHPA:1,2019-06-05T20:00:00Z,30.6671,-87.9365,1.581,0.1,11111222 
DISL,ioos:station:DISL:MHPA:1,2019-06-05T20:30:00Z,30.6671,-87.9365,1.6,0.1,11111222 
DISL,ioos:station:DISL:MHPA:1,2019-06-05T21:00:00Z,30.6671,-87.9365,1.455,0.1,11111222 
DISL,ioos:station:DISL:MHPA:1,2019-06-05T21:30:00Z,30.6671,-87.9365,1.4,0.1,11111222 
DISL,ioos:station:DISL:MHPA:1,2019-06-05T22:00:00Z,30.6671,-87.9365,1.383,0.1,11111222 
DISL,ioos:station:DISL:MHPA:1,2019-06-05T22:30:00Z,30.6671,-87.9365,1.3,0.1,11111222 
DISL,ioos:station:DISL:MHPA:1,2019-06-05T23:00:00Z,30.6671,-87.9365,1.304,0.1,11111222 
DISL,ioos:station:DISL:MHPA:1,2019-06-05T23:30:00Z,30.6671,-87.9365,1.3,0.1,11111222 
DISL,ioos:station:DISL:MHPA:1,2019-06-06T00:00:00Z,30.6671,-87.9365,1.237,0.1,11111222 
DISL,ioos:station:DISL:MHPA:1,2019-06-06T00:30:00Z,30.6671,-87.9365,1.2,0.1,11111222 
DISL,ioos:station:DISL:MHPA:1,2019-06-06T01:00:00Z,30.6671,-87.9365,1.17,0.1,11111222 
DISL,ioos:station:DISL:MHPA:1,2019-06-06T01:30:00Z,30.6671,-87.9365,1.1,0.1,11111222 
DISL,ioos:station:DISL:MHPA:1,2019-06-06T02:00:00Z,30.6671,-87.9365,1.096,0.1,11111222 
DISL,ioos:station:DISL:MHPA:1,2019-06-06T02:30:00Z,30.6671,-87.9365,1.1,0.1,11111222 
DISL,ioos:station:DISL:MHPA:1,2019-06-06T03:00:00Z,30.6671,-87.9365,1.019,0.1,11111222 
DISL,ioos:station:DISL:MHPA:1,2019-06-06T03:30:00Z,30.6671,-87.9365,1.0,0.1,11111222 
DISL,ioos:station:DISL:MHPA:1,2019-06-06T04:00:00Z,30.6671,-87.9365,0.944,0.1,11111222 
DISL,ioos:station:DISL:MHPA:1,2019-06-06T04:30:00Z,30.6671,-87.9365,0.9,0.1,11111222 
DISL,ioos:station:DISL:MHPA:1,2019-06-06T05:00:00Z,30.6671,-87.9365,0.892,0.1,11111222 
DISL,ioos:station:DISL:MHPA:1,2019-06-06T05:30:00Z,30.6671,-87.9365,0.9,0.1,11111222 
DISL,ioos:station:DISL:MHPA:1,2019-06-06T06:00:00Z,30.6671,-87.9365,0.875,0.1,11111222 
DISL,ioos:station:DISL:MHPA:1,2019-06-06T06:30:00Z,30.6671,-87.9365,0.9,0.1,11111222 
DISL,ioos:station:DISL:MHPA:1,2019-06-06T07:00:00Z,30.6671,-87.9365,0.876,0.1,11111222 
DISL,ioos:station:DISL:MHPA:1,2019-06-06T07:30:00Z,30.6671,-87.9365,0.9,0.1,11111222 
DISL,ioos:station:DISL:MHPA:1,2019-06-06T08:00:00Z,30.6671,-87.9365,0.935,0.1,11111222 
DISL,ioos:station:DISL:MHPA:1,2019-06-06T08:30:00Z,30.6671,-87.9365,1.0,0.1,11111222 
DISL,ioos:station:DISL:MHPA:1,2019-06-06T09:00:00Z,30.6671,-87.9365,1.018,0.1,11111222 
DISL,ioos:station:DISL:MHPA:1,2019-06-06T09:30:00Z,30.6671,-87.9365,1.0,0.1,11111222 
DISL,ioos:station:DISL:MHPA:1,2019-06-06T10:00:00Z,30.6671,-87.9365,1.04,0.1,11111222 
DISL,ioos:station:DISL:MHPA:1,2019-06-06T10:30:00Z,30.6671,-87.9365,1.1,0.1,11111222 
DISL,ioos:station:DISL:MHPA:1,2019-06-06T11:00:00Z,30.6671,-87.9365,1.189,0.1,11111222 
DISL,ioos:station:DISL:MHPA:1,2019-06-06T11:30:00Z,30.6671,-87.9365,1.2,0.1,11111222 
DISL,ioos:station:DISL:MHPA:1,2019-06-06T12:00:00Z,30.6671,-87.9365,1.263,0.1,11111222 
DISL,ioos:station:DISL:MHPA:1,2019-06-06T12:30:00Z,30.6671,-87.9365,1.3,0.1,11111222 
DISL,ioos:station:DISL:MHPA:1,2019-06-06T13:00:00Z,30.6671,-87.9365,1.388,0.1,11111222 
DISL,ioos:station:DISL:MHPA:1,2019-06-06T13:30:00Z,30.6671,-87.9365,1.4,0.1,11111222 
DISL,ioos:station:DISL:MHPA:1,2019-06-06T14:00:00Z,30.6671,-87.9365,1.36,0.1,11111222 
DISL,ioos:station:DISL:MHPA:1,2019-06-06T14:30:00Z,30.6671,-87.9365,1.4,0.1,11111222 
DISL,ioos:station:DISL:MHPA:1,2019-06-06T15:00:00Z,30.6671,-87.9365,1.421,0.1,11111222 
DISL,ioos:station:DISL:MHPA:1,2019-06-06T15:30:00Z,30.6671,-87.9365,1.5,0.1,11111222 
DISL,ioos:station:DISL:MHPA:1,2019-06-06T16:00:00Z,30.6671,-87.9365,1.56,0.1,11111222 
DISL,ioos:station:DISL:MHPA:1,2019-06-06T16:30:00Z,30.6671,-87.9365,1.6,0.1,11111222 
DISL,ioos:station:DISL:MHPA:1,2019-06-06T17:00:00Z,30.6671,-87.9365,1.685,0.1,11111222 
DISL,ioos:station:DISL:MHPA:1,2019-06-06T17:30:00Z,30.6671,-87.9365,1.7,0.1,11111222 